Date String (YYYY-MM-DD hh:mm:ss) UTC,Instrument flags,Ambient pressure (hPa),Sample flow (lpm),Bypass flow (lpm),Sample temperature (°C),Ambient temperature (°C),ASC tube jacket temperature (°C),LED temperature (°C),Box temperature (°C),Sample RH (%),Span deviation,Mass concentration (μg/m³),Mass concentration (μg/m³),Mass concentration (μg/m³)
DateTimeUTC,F1_M11,P_M11,Q1_M11,Q2_M11,T1_M11,T2_M11,T3_M11,T4_M11,T5_M11,U1_M11,ZSPAN_M11,X0_M11,X2_M11,X1_M11
2021-11-27 04:00:00,,0825.7,4.99,0.00,29.8,28.9,00.0,38.8,31.5,06.5,0000.0,0001.82,0001.02,0000.61
2021-11-27 04:01:00,,0825.7,5.00,0.00,29.8,28.9,00.0,38.8,31.5,06.5,0000.0,0001.83,0001.02,0000.61
2021-11-27 04:02:00,,0826.1,5.01,0.00,29.8,28.9,00.0,38.8,31.5,06.4,0000.0,0001.86,0001.03,0000.62
2021-11-27 04:03:00,,0826.1,4.98,0.00,29.8,28.9,00.0,38.8,31.5,06.3,0000.0,0001.93,0001.05,0000.62
2021-11-27 04:04:00,,0825.9,5.01,0.00,29.8,28.9,00.0,38.8,31.5,06.3,0000.0,0001.84,0001.04,0000.63
2021-11-27 04:05:00,,0825.8,4.99,0.00,29.8,28.9,00.0,38.8,31.5,06.3,0000.0,0001.90,0001.08,0000.65
2021-11-27 04:06:00,,0825.9,5.00,0.00,29.8,28.9,00.0,38.8,31.5,06.3,0000.0,0001.97,0001.06,0000.64
2021-11-27 04:07:00,,0825.8,5.01,0.00,29.8,28.9,00.0,38.8,31.5,06.3,0000.0,0002.01,0001.07,0000.65
2021-11-27 04:08:00,,0825.8,4.99,0.00,29.8,28.9,00.0,38.8,31.5,06.2,0000.0,0002.04,0001.07,0000.65
2021-11-27 04:09:00,,0825.8,5.01,0.00,29.8,28.9,00.0,38.8,31.5,06.2,0000.0,0002.12,0001.09,0000.67
2021-11-27 04:10:00,,0826.0,5.00,0.00,29.8,28.9,00.0,38.8,31.5,06.1,0000.0,0002.24,0001.12,0000.69
2021-11-27 04:11:00,,0825.9,4.99,0.00,29.8,28.9,00.0,38.8,31.5,06.1,0000.0,0002.63,0001.19,0000.70
2021-11-27 04:12:00,,0826.0,5.01,0.00,29.8,28.9,00.0,38.8,31.5,06.1,0000.0,0002.79,0001.24,0000.71
2021-11-27 04:13:00,,0826.1,5.00,0.00,29.8,28.9,00.0,38.8,31.5,06.1,0000.0,0003.07,0001.29,0000.71
2021-11-27 04:14:00,,0826.0,5.00,0.00,29.7,28.9,00.0,38.8,31.4,06.0,0000.0,0003.03,0001.28,0000.72
2021-11-27 04:15:00,,0825.8,4.99,0.00,29.7,28.9,00.0,38.8,31.4,06.0,0000.0,0003.05,0001.27,0000.72
2021-11-27 04:16:00,,0826.0,5.00,0.00,29.7,28.9,00.0,38.8,31.4,06.0,0000.0,0003.37,0001.27,0000.73
2021-11-27 04:17:00,,0825.9,5.00,0.00,29.7,28.9,00.0,38.8,31.4,06.0,0000.0,0003.57,0001.27,0000.74
2021-11-27 04:18:00,,0825.9,5.00,0.00,29.7,28.8,00.0,38.8,31.3,06.0,0000.0,0003.62,0001.30,0000.75
2021-11-27 04:19:00,,0825.9,5.00,0.00,29.7,28.8,00.0,38.8,31.3,06.0,0000.0,0003.66,0001.33,0000.77
2021-11-27 04:20:00,,0825.9,5.01,0.00,29.7,28.8,00.0,38.8,31.4,06.0,0000.0,0003.71,0001.35,0000.77
2021-11-27 04:21:00,,0826.0,5.00,0.00,29.7,28.8,00.0,38.8,31.4,06.0,0000.0,0003.86,0001.35,0000.76
2021-11-27 04:22:00,,0826.0,4.99,0.00,29.7,28.8,00.0,38.7,31.3,06.0,0000.0,0003.55,0001.30,0000.76
2021-11-27 04:23:00,,0826.0,5.00,0.00,29.7,28.8,00.0,38.7,31.4,06.0,0000.0,0003.36,0001.27,0000.76
2021-11-27 04:24:00,,0826.0,5.01,0.00,29.7,28.8,00.0,38.7,31.4,06.0,0000.0,0003.24,0001.24,0000.77
2021-11-27 04:25:00,,0826.0,4.99,0.00,29.7,28.8,00.0,38.7,31.3,06.0,0000.0,0003.20,0001.24,0000.77
2021-11-27 04:26:00,,0826.0,5.01,0.00,29.7,28.8,00.0,38.7,31.3,06.0,0000.0,0003.15,0001.23,0000.77
2021-11-27 04:27:00,,0826.0,5.00,0.00,29.6,28.8,00.0,38.7,31.3,06.0,0000.0,0002.86,0001.21,0000.76
2021-11-27 04:28:00,,0825.9,4.99,0.00,29.6,28.7,00.0,38.7,31.3,06.0,0000.0,0002.47,0001.18,0000.76
2021-11-27 04:29:00,,0825.9,5.01,0.00,29.6,28.7,00.0,38.7,31.3,06.1,0000.0,0002.41,0001.15,0000.75
2021-11-27 04:30:00,,0825.9,4.98,0.00,29.6,28.8,00.0,38.7,31.4,06.1,0000.0,0002.36,0001.12,0000.74
2021-11-27 04:31:00,,0825.7,5.02,0.00,29.7,28.8,00.0,38.7,31.3,06.2,0000.0,0002.27,0001.09,0000.73
2021-11-27 04:32:00,,0825.7,4.99,0.00,29.7,28.8,00.0,38.7,31.3,06.1,0000.0,0002.05,0001.08,0000.73
2021-11-27 04:33:00,,0825.7,5.01,0.00,29.6,28.8,00.0,38.7,31.3,06.1,0000.0,0002.20,0001.10,0000.75
2021-11-27 04:34:00,,0825.6,5.00,0.00,29.6,28.7,00.0,38.7,31.2,06.1,0000.0,0002.60,0001.11,0000.73
2021-11-27 04:35:00,,0825.7,4.99,0.00,29.6,28.7,00.0,38.7,31.2,06.1,0000.0,0002.63,0001.14,0000.73
2021-11-27 04:36:00,,0825.7,5.00,0.00,29.6,28.7,00.0,38.7,31.3,06.2,0000.0,0002.59,0001.14,0000.72
2021-11-27 04:37:00,,0825.7,5.00,0.00,29.6,28.7,00.0,38.7,31.3,06.3,0000.0,0002.60,0001.15,0000.71
2021-11-27 04:38:00,,0825.7,5.02,0.00,29.6,28.7,00.0,38.7,31.2,06.3,0000.0,0002.54,0001.12,0000.70
2021-11-27 04:39:00,,0825.8,5.04,0.00,29.6,28.7,00.0,38.7,31.2,06.2,0000.0,0002.52,0001.11,0000.70
2021-11-27 04:40:00,,0825.9,4.99,0.00,29.6,28.7,00.0,38.7,31.2,06.2,0000.0,0002.55,0001.15,0000.69
2021-11-27 04:41:00,,0826.0,4.99,0.00,29.6,28.7,00.0,38.7,31.2,06.2,0000.0,0002.66,0001.20,0000.69
2021-11-27 04:42:00,,0825.9,5.00,0.00,29.6,28.7,00.0,38.7,31.2,06.2,0000.0,0002.70,0001.25,0000.69
2021-11-27 04:43:00,,0826.0,4.99,0.00,29.6,28.6,00.0,38.7,31.2,06.1,0000.0,0002.69,0001.24,0000.69
2021-11-27 04:44:00,,0825.9,5.00,0.00,29.6,28.6,00.0,38.7,31.2,06.1,0000.0,0002.52,0001.22,0000.68
2021-11-27 04:45:00,,0825.8,5.00,0.00,29.6,28.6,00.0,38.7,31.2,06.1,0000.0,0002.11,0001.20,0000.69
2021-11-27 04:46:00,,0825.9,5.00,0.00,29.6,28.6,00.0,38.7,31.1,06.1,0000.0,0001.96,0001.15,0000.69
2021-11-27 04:47:00,,0825.8,5.00,0.00,29.6,28.6,00.0,38.6,31.2,06.1,0000.0,0002.17,0001.18,0000.70
2021-11-27 04:48:00,,0825.7,5.01,0.00,29.6,28.6,00.0,38.6,31.2,06.0,0000.0,0002.59,0001.21,0000.72
2021-11-27 04:49:00,,0825.7,5.00,0.00,29.5,28.6,00.0,38.6,31.1,05.9,0000.0,0003.74,0001.26,0000.72
2021-11-27 04:50:00,,0825.8,4.99,0.00,29.5,28.6,00.0,38.6,31.2,06.0,0000.0,0003.72,0001.27,0000.73
2021-11-27 04:51:00,,0825.8,5.02,0.00,29.5,28.6,00.0,38.6,31.2,06.0,0000.0,0003.67,0001.25,0000.74
2021-11-27 04:52:00,,0825.8,4.99,0.00,29.5,28.6,00.0,38.6,31.2,06.0,0000.0,0003.64,0001.24,0000.74
2021-11-27 04:53:00,,0825.9,5.01,0.00,29.5,28.6,00.0,38.6,31.2,06.0,0000.0,0003.65,0001.23,0000.76
2021-11-27 04:54:00,,0825.9,5.00,0.00,29.5,28.6,00.0,38.6,31.2,06.0,0000.0,0003.72,0001.26,0000.78
2021-11-27 04:55:00,,0826.0,5.00,0.00,29.5,28.6,00.0,38.6,31.1,05.8,0000.0,0003.77,0001.28,0000.78
2021-11-27 04:56:00,,0826.0,5.00,0.00,29.5,28.6,00.0,38.6,31.1,05.7,0000.0,0003.75,0001.27,0000.79
2021-11-27 04:57:00,,0826.1,5.00,0.00,29.5,28.6,00.0,38.6,31.2,05.7,0000.0,0003.85,0001.26,0000.79
2021-11-27 04:58:00,,0826.2,5.01,0.00,29.5,28.6,00.0,38.6,31.1,05.7,0000.0,0003.93,0001.28,0000.79
2021-11-27 04:59:00,,0826.2,4.99,0.00,29.5,28.6,00.0,38.6,31.2,05.6,0000.0,0003.79,0001.26,0000.79
